Location: Altleiningen
(49.5078°N, 8.0741°E)
Time: 11:43:25
(UTC+00:00)

YAOGAN 1 - Pass Details

Date: 03 March 2021
Orbit: 618 x 620 km, 97.9° (Epoch: 12 April)

Event Time Altitude Azimuth Distance (km) Brightness Sun altitude
Rises 17:38:04 0° 152° (SSE) 2,887 5.7 -4.7°
Reaches altitude 10° 17:40:17 10° 147° (SSE) 1,986 4.9 -5.1°
Maximum altitude 17:44:29 53° 71° (ENE) 764 2.7 -5.8°
Drops below altitude 10° 17:48:43 10° 355° (N) 2,001 5.2 -6.5°
Sets 17:50:57 0° 350° (N) 2,912 6.1 -6.8°
